EW6442 Weather Reports


time (UTC)temp
C
wind
direction
speed
KPH
gust
KPH
rain 1hr
cm
rain 24hr
cm
rain mn
cm
humidity
%
barometer
mb
20260510205038 30 338 9.7 24.1 0.00 0.00 0.00 16 1016.7
20260510204538 30 359 11.3 24.1 0.00 0.00 0.00 16 1016.7
20260510204038 30 310 6.4 20.9 0.00 0.00 0.00 16 1016.8
20260510203537 29 359 6.4 22.5 0.00 0.00 0.00 17 1016.9
20260510203035 29 8 8.0 22.5 0.00 0.00 0.00 16 1016.8
20260510202534 30 343 9.7 19.3 0.00 0.00 0.00 15 1016.8
20260510202033 30 354 8.0 19.3 0.00 0.00 0.00 15 1016.9
20260510201533 30 27 4.8 24.1 0.00 0.00 0.00 15 1016.9
20260510201033 30 39 11.3 24.1 0.00 0.00 0.00 15 1016.9
20260510200532 30 8 8.0 20.9 0.00 0.00 0.00 14 1016.8
20260510200032 30 313 12.9 20.9 0.00 0.00 0.00 14 1016.9
20260510195532 30 359 12.9 20.9 0.00 0.00 0.00 13 1017.0
20260510195033 30 251 9.7 20.9 0.00 0.00 0.00 14 1017.1
20260510194533 30 302 9.7 27.4 0.00 0.00 0.00 14 1016.9
20260510194030 30 312 12.9 27.4 0.00 0.00 0.00 14 1017.0
20260510193530 30 271 11.3 27.4 0.00 0.00 0.00 13 1017.0
20260510193028 30 336 9.7 27.4 0.00 0.00 0.00 13 1017.1
20260510192526 30 305 8.0 17.7 0.00 0.00 0.00 15 1017.1
20260510192026 30 280 9.7 20.9 0.00 0.00 0.00 14 1017.4
20260510191542 30 341 9.7 20.9 0.00 0.00 0.00 12 1017.3
20260510191025 30 272 6.4 19.3 0.00 0.00 0.00 13 1017.5
20260510190524 30 37 8.0 19.3 0.00 0.00 0.00 12 1017.7
20260510190024 30 337 8.0 16.1 0.00 0.00 0.00 13 1017.7
20260510185524 30 281 6.4 16.1 0.00 0.00 0.00 12 1017.7
20260510185024 30 314 8.0 20.9 0.00 0.00 0.00 13 1017.7
20260510184523 30 266 4.8 20.9 0.00 0.00 0.00 13 1017.7
20260510184023 30 333 8.0 22.5 0.00 0.00 0.00 13 1017.8
20260510183526 30 4 9.7 22.5 0.00 0.00 0.00 11 1017.9
20260510183022 30 359 1.6 11.3 0.00 0.00 0.00 13 1018.1
20260510182553 30 163 3.2 12.9 0.00 0.00 0.00 13 1018.0
20260510182049 30 220 8.0 12.9 0.00 0.00 0.00 14 1018.1
20260510181549 29 175 4.8 19.3 0.00 0.00 0.00 15 1018.3
20260510181049 29 328 11.3 19.3 0.00 0.00 0.00 15 1018.3
20260510180549 29 339 1.6 11.3 0.00 0.00 0.00 15 1018.4
20260510180053 30 337 4.8 11.3 0.00 0.00 0.00 15 1018.4
20260510175549 30 298 1.6 9.7 0.00 0.00 0.00 16 1018.6
20260510175045 28 330 3.2 16.1 0.00 0.00 0.00 17 1018.7
20260510174551 28 18 8.0 16.1 0.00 0.00 0.00 17 1018.7
20260510174044 29 246 3.2 16.1 0.00 0.00 0.00 17 1018.7
20260510173544 29 273 4.8 12.9 0.00 0.00 0.00 17 1018.7
20260510173044 29 227 1.6 12.9 0.00 0.00 0.00 16 1018.8
20260510172546 29 245 4.8 12.9 0.00 0.00 0.00 16 1018.8
20260510172043 28 36 0.0 12.9 0.00 0.00 0.00 17 1018.8
20260510171545 28 324 6.4 16.1 0.00 0.00 0.00 16 1018.9
20260510171046 28 270 3.2 16.1 0.00 0.00 0.00 15 1018.8
20260510170548 28 322 3.2 12.9 0.00 0.00 0.00 15 1018.8
20260510170047 28 15 4.8 12.9 0.00 0.00 0.00 14 1018.8
20260510165541 28 305 4.8 17.7 0.00 0.00 0.00 13 1018.7
20260510165040 28 267 6.4 17.7 0.00 0.00 0.00 13 1018.9
20260510164538 28 301 4.8 14.5 0.00 0.00 0.00 14 1018.9
20260510164038 28 321 3.2 9.7 0.00 0.00 0.00 15 1018.9
20260510163537 28 299 3.2 11.3 0.00 0.00 0.00 15 1018.8
20260510163036 28 267 1.6 9.7 0.00 0.00 0.00 16 1018.7
20260510162534 27 347 3.2 9.7 0.00 0.00 0.00 15 1018.7
20260510162035 27 24 3.2 9.7 0.00 0.00 0.00 17 1018.7
20260510161533 27 354 4.8 9.7 0.00 0.00 0.00 16 1018.7
20260510161035 27 103 3.2 8.0 0.00 0.00 0.00 18 1018.7
20260510160532 27 29 3.2 6.4 0.00 0.00 0.00 23 1018.6
20260510160030 27 359 3.2 6.4 0.00 0.00 0.00 25 1018.5
20260510155528 28 278 1.6 4.8 0.00 0.00 0.00 25 1018.5
20260510155026 28 278 0.0 4.8 0.00 0.00 0.00 30 1018.5
20260510154527 27 243 1.6 4.8 0.00 0.00 0.00 30 1018.4
20260510154026 27 144 0.0 4.8 0.00 0.00 0.00 31 1018.3
20260510153525 27 264 0.0 4.8 0.00 0.00 0.00 31 1018.3
20260510153022 27 265 1.6 4.8 0.00 0.00 0.00 32 1018.3
20260510152524 26 311 1.6 4.8 0.00 0.00 0.00 32 1018.2
20260510152024 26 310 0.0 6.4 0.00 0.00 0.00 33 1018.2
20260510151520 26 310 3.2 6.4 0.00 0.00 0.00 33 1018.4
20260510151018 26 47 0.0 3.2 0.00 0.00 0.00 34 1018.4
20260510150518 26 47 0.0 4.8 0.00 0.00 0.00 35 1018.5
20260510150017 25 47 1.6 4.8 0.00 0.00 0.00 35 1018.6
20260510145513 25 47 0.0 3.2 0.00 0.00 0.00 37 1018.5
20260510145011 25 47 0.0 4.8 0.00 0.00 0.00 38 1018.5
20260510144512 24 47 1.6 4.8 0.00 0.00 0.00 37 1018.5
20260510144009 24 47 0.0 4.8 0.00 0.00 0.00 38 1018.6
20260510143508 24 47 1.6 4.8 0.00 0.00 0.00 40 1018.6
20260510143016 23 47 0.0 6.4 0.00 0.00 0.00 38 1018.5
20260510142512 23 47 0.0 6.4 0.00 0.00 0.00 39 1018.6
20260510142007 24 146 0.0 3.2 0.00 0.00 0.00 39 1018.5
20260510141506 23 145 0.0 1.6 0.00 0.00 0.00 41 1018.6
20260510141003 23 146 0.0 1.6 0.00 0.00 0.00 41 1018.6
20260510140507 23 147 0.0 3.2 0.00 0.00 0.00 43 1018.5
20260510140002 23 145 0.0 3.2 0.00 0.00 0.00 43 1018.5
20260510135503 22 146 0.0 3.2 0.00 0.00 0.00 44 1018.5
20260510135058 22 147 0.0 3.2 0.00 0.00 0.00 44 1018.5
20260510134556 22 147 0.0 1.6 0.00 0.00 0.00 46 1018.4
20260510134056 22 145 0.0 1.6 0.00 0.00 0.00 46 1018.4
20260510133554 21 147 0.0 4.8 0.00 0.00 0.00 47 1018.4
20260510133053 21 147 0.0 4.8 0.00 0.00 0.00 48 1018.4
20260510132052 20 146 0.0 3.2 0.00 0.00 0.00 52 1018.3
20260510131548 19 145 0.0 0.0 0.00 0.00 0.00 54 1018.3
20260510131048 19 146 0.0 1.6 0.00 0.00 0.00 55 1018.2
20260510130547 19 146 0.0 3.2 0.00 0.00 0.00 55 1018.2
20260510130046 19 147 0.0 3.2 0.00 0.00 0.00 56 1018.1
20260510125545 18 146 0.0 3.2 0.00 0.00 0.00 58 1018.1
20260510125042 18 147 0.0 1.6 0.00 0.00 0.00 58 1017.9
20260510124550 18 145 0.0 3.2 0.00 0.00 0.00 60 1018.0
20260510124040 18 146 0.0 3.2 0.00 0.00 0.00 61 1017.9
20260510123541 17 147 0.0 3.2 0.00 0.00 0.00 61 1017.9
20260510123039 17 146 0.0 3.2 0.00 0.00 0.00 61 1017.8
20260510122539 17 147 0.0 0.0 0.00 0.00 0.00 61 1017.8
20260510122039 17 147 0.0 0.0 0.00 0.00 0.00 60 1017.7
20260510121537 17 146 0.0 3.2 0.00 0.00 0.00 61 1017.6
20260510121036 17 146 0.0 3.2 0.00 0.00 0.00 62 1017.6
20260510120538 17 145 1.6 4.8 0.00 0.00 0.00 63 1017.5
20260510120036 17 147 0.0 4.8 0.00 0.00 0.00 64 1017.4
20260510115534 17 103 1.6 4.8 0.00 0.00 0.00 66 1017.3
20260510115034 17 103 0.0 6.4 0.00 0.00 0.00 68 1017.3
20260510114531 17 103 0.0 6.4 0.00 0.00 0.00 68 1017.3
20260510114030 17 340 0.0 1.6 0.00 0.00 0.00 72 1017.4
20260510113529 17 340 0.0 1.6 0.00 0.00 0.00 73 1017.3
20260510113029 17 340 0.0 1.6 0.00 0.00 0.00 74 1017.3
20260510112531 17 340 0.0 1.6 0.00 0.00 0.00 74 1017.3
20260510112029 17 340 0.0 1.6 0.00 0.00 0.00 74 1017.3
20260510111528 17 340 0.0 0.0 0.00 0.00 0.00 74 1017.3
20260510111027 17 340 0.0 0.0 0.00 0.00 0.00 74 1017.3
20260510110529 17 340 0.0 1.6 0.00 0.00 0.00 73 1017.3
20260510110035 17 340 0.0 1.6 0.00 0.00 0.00 74 1017.3
20260510105526 17 340 0.0 1.6 0.00 0.00 0.00 74 1017.2
20260510105024 17 340 0.0 4.8 0.00 0.00 0.00 74 1017.2
20260510104524 17 340 1.6 4.8 0.00 0.00 0.00 74 1017.2
20260510104025 17 340 0.0 1.6 0.00 0.00 0.00 74 1017.2
20260510103525 17 340 0.0 1.6 0.00 0.00 0.00 73 1017.3
20260510103023 17 340 0.0 0.0 0.00 0.00 0.00 73 1017.3
20260510102523 17 340 0.0 1.6 0.00 0.00 0.00 73 1017.2
20260510102022 17 340 0.0 1.6 0.00 0.00 0.00 73 1017.1
20260510101522 17 340 0.0 1.6 0.00 0.00 0.00 74 1017.1
20260510101021 17 340 0.0 0.0 0.00 0.00 0.00 73 1017.1
20260510100524 17 340 0.0 0.0 0.00 0.00 0.00 72 1017.1
20260510100021 17 340 0.0 0.0 0.00 0.00 0.00 72 1017.0
20260510095520 17 340 0.0 0.0 0.00 0.00 0.00 70 1016.9
20260510095021 17 340 0.0 0.0 0.00 0.00 0.00 71 1017.0
20260510094537 17 340 0.0 0.0 0.00 0.00 0.00 71 1017.1
20260510094015 17 340 0.0 0.0 0.00 0.00 0.00 71 1017.0
20260510093514 17 340 0.0 3.2 0.00 0.00 0.00 71 1017.0
20260510093015 17 340 0.0 3.2 0.00 0.00 0.00 70 1017.1
20260510092517 17 340 0.0 3.2 0.00 0.00 0.00 70 1017.0
20260510092012 17 340 0.0 3.2 0.00 0.00 0.00 69 1017.1
20260510091520 18 340 0.0 3.2 0.00 0.00 0.00 68 1016.9
20260510091011 18 339 1.6 4.8 0.00 0.00 0.00 68 1016.9
20260510090511 18 340 1.6 4.8 0.00 0.00 0.00 69 1016.8
20260510090014 18 340 0.0 3.2 0.00 0.00 0.00 69 1016.7
20260510085510 18 340 0.0 4.8 0.00 0.00 0.00 69 1016.7
20260510085012 18 359 1.6 4.8 0.00 0.00 0.00 70 1016.7
20260510084507 18 340 0.0 4.8 0.00 0.00 0.00 70 1016.6
20260510084007 18 340 0.0 0.0 0.00 0.00 0.00 72 1016.7
20260510083507 18 340 0.0 0.0 0.00 0.00 0.00 73 1016.7
20260510083007 18 340 0.0 0.0 0.00 0.00 0.00 73 1016.7
20260510082505 18 339 0.0 0.0 0.00 0.00 0.00 70 1016.7
20260510082005 18 340 0.0 3.2 0.00 0.00 0.00 68 1016.7
20260510081505 18 340 0.0 3.2 0.00 0.00 0.00 68 1016.8
20260510081005 18 340 0.0 0.0 0.00 0.00 0.00 68 1016.7
20260510080504 18 340 0.0 1.6 0.00 0.00 0.00 68 1016.8
20260510080004 18 340 0.0 1.6 0.00 0.00 0.00 68 1016.7
20260510075503 18 340 0.0 1.6 0.00 0.00 0.00 68 1016.8
20260510075003 18 340 0.0 1.6 0.00 0.00 0.00 68 1016.9
20260510074601 18 359 0.0 3.2 0.00 0.00 0.00 68 1016.9
20260510074101 18 340 0.0 3.2 0.00 0.00 0.00 69 1016.9
20260510073600 18 340 0.0 1.6 0.00 0.00 0.00 69 1017.0
20260510073100 18 359 0.0 4.8 0.00 0.00 0.00 69 1016.9
20260510072559 18 340 0.0 4.8 0.00 0.00 0.00 70 1016.8
20260510072059 18 340 1.6 4.8 0.00 0.00 0.00 70 1016.8
20260510071558 18 340 0.0 3.2 0.00 0.00 0.00 71 1016.8
20260510071056 18 340 0.0 3.2 0.00 0.00 0.00 71 1016.8
20260510070556 18 340 0.0 1.6 0.00 0.00 0.00 72 1017.0
20260510070056 18 340 0.0 4.8 0.00 0.00 0.00 72 1016.9
20260510065559 18 340 0.0 4.8 0.00 0.00 0.00 72 1016.9
20260510065056 18 340 1.6 4.8 0.00 0.00 0.00 72 1016.9
20260510064552 18 340 1.6 4.8 0.00 0.00 0.00 73 1016.9
20260510064051 19 340 1.6 4.8 0.00 0.00 0.00 73 1016.8
20260510063555 19 340 0.0 4.8 0.00 0.00 0.00 73 1016.9
20260510063051 19 340 0.0 3.2 0.00 0.00 0.00 74 1016.8
20260510062550 19 340 1.6 3.2 0.00 0.00 0.00 74 1016.9
20260510062049 19 340 0.0 3.2 0.00 0.00 0.00 74 1016.9
20260510061552 19 340 1.6 4.8 0.00 0.00 0.00 74 1017.0
20260510061048 19 340 1.6 3.2 0.00 0.00 0.00 74 1016.9
20260510060548 19 340 1.6 4.8 0.00 0.00 0.00 74 1017.1
20260510060048 19 340 1.6 6.4 0.00 0.00 0.00 73 1017.0
20260510055546 19 340 1.6 6.4 0.00 0.00 0.00 73 1017.0
20260510055046 20 340 3.2 6.4 0.00 0.00 0.00 73 1017.1
20260510054545 20 340 3.2 6.4 0.00 0.00 0.00 73 1017.2
20260510054042 20 340 1.6 6.4 0.00 0.00 0.00 73 1017.1
20260510053541 20 340 3.2 4.8 0.00 0.00 0.00 73 1017.2
20260510053055 20 340 1.6 4.8 0.00 0.00 0.00 72 1017.3
20260510052540 20 340 0.0 3.2 0.00 0.00 0.00 72 1017.2
20260510052040 20 340 1.6 3.2 0.00 0.00 0.00 72 1017.2
20260510051547 20 359 0.0 3.2 0.00 0.00 0.00 71 1017.2
20260510051039 20 340 0.0 3.2 0.00 0.00 0.00 71 1017.3
20260510050538 20 359 0.0 4.8 0.00 0.00 0.00 71 1017.3
20260510050037 20 340 1.6 4.8 0.00 0.00 0.00 71 1017.4
20260510045538 20 340 0.0 0.0 0.00 0.00 0.00 71 1017.4
20260510045037 20 340 0.0 0.0 0.00 0.00 0.00 71 1017.4
20260510044537 20 340 0.0 0.0 0.00 0.00 0.00 71 1017.4
20260510044034 20 340 0.0 3.2 0.00 0.00 0.00 71 1017.4
20260510043533 20 340 0.0 3.2 0.00 0.00 0.00 71 1017.4
20260510043042 20 340 1.6 4.8 0.00 0.00 0.00 71 1017.3
20260510042533 20 359 0.0 4.8 0.00 0.00 0.00 71 1017.3
20260510042031 20 340 0.0 3.2 0.00 0.00 0.00 71 1017.2
20260510041531 20 340 0.0 3.2 0.00 0.00 0.00 71 1017.0
20260510041030 20 340 0.0 3.2 0.00 0.00 0.00 71 1016.9
20260510040529 20 340 1.6 4.8 0.00 0.00 0.00 71 1016.8
20260510040038 20 340 1.6 6.4 0.00 0.00 0.00 71 1016.7
20260510035529 20 340 1.6 6.4 0.00 0.00 0.00 71 1016.8
20260510035028 20 339 3.2 8.0 0.00 0.00 0.00 70 1016.8
20260510034527 20 335 3.2 8.0 0.00 0.00 0.00 70 1016.8
20260510034024 20 330 3.2 8.0 0.00 0.00 0.00 69 1016.7
20260510033527 21 327 1.6 4.8 0.00 0.00 0.00 68 1016.7
20260510033022 21 326 1.6 4.8 0.00 0.00 0.00 68 1016.6
20260510032522 21 326 1.6 4.8 0.00 0.00 0.00 69 1016.7
20260510032022 21 327 1.6 6.4 0.00 0.00 0.00 69 1016.8
20260510031523 21 326 1.6 8.0 0.00 0.00 0.00 69 1016.7
20260510031020 21 343 3.2 8.0 0.00 0.00 0.00 68 1016.6
20260510030522 21 319 1.6 6.4 0.00 0.00 0.00 67 1016.7
20260510030019 21 318 1.6 6.4 0.00 0.00 0.00 67 1016.6
20260510025518 21 315 3.2 6.4 0.00 0.00 0.00 66 1016.6
20260510025017 21 316 3.2 6.4 0.00 0.00 0.00 65 1016.7
20260510024517 21 324 3.2 6.4 0.00 0.00 0.00 65 1016.5
20260510024045 21 322 1.6 6.4 0.00 0.00 0.00 64 1016.5
20260510023544 21 316 1.6 6.4 0.00 0.00 0.00 64 1016.5
20260510023043 21 325 3.2 6.4 0.00 0.00 0.00 63 1016.5
20260510022543 22 326 1.6 8.0 0.00 0.00 0.00 63 1016.4
20260510022042 22 314 3.2 6.4 0.00 0.00 0.00 62 1016.4
20260510021547 22 288 1.6 6.4 0.00 0.00 0.00 62 1016.3
20260510021037 22 268 1.6 6.4 0.00 0.00 0.00 62 1016.3
20260510020536 22 322 1.6 14.5 0.00 0.00 0.00 61 1016.3
20260510020036 22 25 4.8 14.5 0.00 0.00 0.00 61 1016.2
20260510015534 22 32 3.2 14.5 0.00 0.00 0.00 60 1016.1
20260510015032 22 13 6.4 14.5 0.00 0.00 0.00 58 1015.8
20260510014534 23 350 3.2 9.7 0.00 0.00 0.00 56 1015.7
20260510014031 23 335 3.2 14.5 0.00 0.00 0.00 55 1015.6
20260510013529 23 359 6.4 17.7 0.00 0.00 0.00 53 1015.6
20260510013028 23 359 8.0 17.7 0.00 0.00 0.00 50 1015.5
20260510012529 24 48 4.8 17.7 0.00 0.00 0.00 48 1015.4
20260510012025 24 316 8.0 19.3 0.00 0.00 0.00 46 1015.4
20260510011533 25 349 11.3 17.7 0.00 0.00 0.00 45 1015.3
20260510011021 25 15 8.0 16.1 0.00 0.00 0.00 41 1015.3
20260510010518 27 48 8.0 16.1 0.00 0.00 0.00 34 1015.2
20260510010019 28 77 6.4 24.1 0.00 0.00 0.00 11 1015.1
20260510005516 28 60 9.7 24.1 0.00 0.00 0.00 10 1015.0
20260510005015 28 46 9.7 24.1 0.00 0.00 0.00 9 1014.9
20260510004522 28 48 8.0 29.0 0.00 0.00 0.00 9 1014.8
20260510004016 28 66 14.5 29.0 0.00 0.00 0.00 9 1014.9
20260510003514 28 112 9.7 27.4 0.00 0.00 0.00 9 1014.7
20260510003014 28 65 16.1 32.2 0.00 0.00 0.00 10 1014.6
20260510002514 29 75 12.9 32.2 0.00 0.00 0.00 10 1014.6
20260510002014 29 56 6.4 19.3 0.00 0.00 0.00 10 1014.6
20260510001514 29 45 3.2 20.9 0.00 0.00 0.00 10 1014.5
20260510001014 29 113 8.0 22.5 0.00 0.00 0.00 10 1014.7
20260510000511 29 64 8.0 22.5 0.00 0.00 0.00 10 1014.5
20260510000010 29 40 4.8 22.5 0.00 0.00 0.00 10 1014.5
20260509235513 29 43 6.4 24.1 0.00 0.00 0.00 10 1014.5
20260509235009 29 37 11.3 24.1 0.00 0.00 0.00 10 1014.5
20260509234509 29 76 9.7 22.5 0.00 0.00 0.00 11 1014.4
20260509234013 29 73 8.0 17.7 0.00 0.00 0.00 10 1014.3
20260509233509 30 33 8.0 20.9 0.00 0.00 0.00 11 1014.4
20260509233008 30 73 9.7 20.9 0.00 0.00 0.00 10 1014.2
20260509232508 30 56 6.4 17.7 0.00 0.00 0.00 11 1014.1
20260509232007 30 66 6.4 22.5 0.00 0.00 0.00 11 1014.3
20260509231507 30 67 12.9 25.7 0.00 0.00 0.00 11 1014.2
20260509231011 30 58 3.2 25.7 0.00 0.00 0.00 11 1014.2
20260509230540 29 59 3.2 20.9 0.00 0.00 0.00 12 1014.2
20260509230037 29 77 11.3 20.9 0.00 0.00 0.00 11 1014.2
20260509225537 30 70 11.3 20.9 0.00 0.00 0.00 12 1014.2
20260509225034 30 68 4.8 20.9 0.00 0.00 0.00 12 1014.4
20260509224533 30 81 9.7 20.9 0.00 0.00 0.00 12 1014.2
20260509224033 29 354 1.6 19.3 0.00 0.00 0.00 13 1014.3
20260509223502 28 97 3.2 19.3 0.00 0.00 0.00 14 1014.4
20260509223002 28 77 8.0 27.4 0.00 0.00 0.00 13 1014.4
20260509222501 28 79 6.4 25.7 0.00 0.00 0.00 14 1014.4
20260509222100 29 100 8.0 20.9 0.00 0.00 0.00 13 1014.5
20260509221600 29 37 9.7 22.5 0.00 0.00 0.00 13 1014.5
20260509221059 28 43 9.7 22.5 0.00 0.00 0.00 14 1014.5
20260509220533 28 71 11.3 22.5 0.00 0.00 0.00 14 1014.6
20260509220033 28 50 8.0 22.5 0.00 0.00 0.00 15 1014.4
20260509215532 28 4 12.9 22.5 0.00 0.03 0.00 15 1014.5
20260509215027 28 83 6.4 22.5 0.00 0.03 0.00 15 1014.5
20260509214527 28 90 6.4 20.9 0.00 0.03 0.00 15 1014.5
20260509214026 29 17 8.0 20.9 0.00 0.03 0.00 15 1014.6
20260509213625 28 105 3.2 20.9 0.00 0.03 0.00 16 1014.5
20260509213055 28 43 8.0 25.7 0.00 0.03 0.00 16 1014.7
20260509212555 28 78 4.8 30.6 0.00 0.03 0.00 16 1014.7
20260509212054 29 68 16.1 30.6 0.00 0.03 0.00 16 1014.8
20260509211554 29 74 8.0 27.4 0.00 0.03 0.00 16 1014.8
20260509211053 28 41 11.3 27.4 0.00 0.03 0.00 17 1015.0
20260509210600 28 71 8.0 29.0 0.00 0.03 0.00 17 1014.8
20260509210559 28 56 6.4 29.0 0.00 0.03 0.00 17 1014.8
20260509210025 29 68 14.5 29.0 0.00 0.03 0.00 16 1014.8
20260509205524 29 35 9.7 24.1 0.00 0.10 0.00 16 1014.8